Weaverville, CA

9:00 PM PST on February 24, 2018 (GMT -0800)
Weaverville

Weather History for KO54 - September, 2012

Change the Weather History Date:

Tuesday, September 4, 2012

  Actual Average (KRDD) Record (KRDD)
Temperature  
Mean Temperature 70 °F -  
Max Temperature 93 °F 91 °F 115 °F (1988)
Min Temperature 48 °F 59 °F 53 °F (1989)
Cooling Degree Days 6    
Growing Degree Days 20 (Base 50)    
Moisture  
Dew Point 34 °F    
Average Humidity 36    
Maximum Humidity 71    
Minimum Humidity 7    
Precipitation  
Precipitation 0.00 in - - ()
Sea Level Pressure  
Sea Level Pressure 30.06 in    
Wind  
Wind Speed 1 mph (ESE)    
Max Wind Speed 7 mph    
Max Gust Speed -    
Visibility 10 miles    
Events      
Averages and records for this station are not official NWS values.
T = Trace of Precipitation, MM = Missing Value Source: NWS Daily Summary

Daily Weather History Graph

Daily Weather History Graph

Search for Another Location

Airport or City:

Trip Planner

Search our weather history database for the weather conditions in past years. The results will help you decide how hot, cold, wet, or windy it might be!

Date:

Astronomy

Sep. 04, 2012 Rise Set
Actual Time 6:42 AM PDT 7:38 PM PDT
Civil Twilight 6:14 AM PDT 8:05 PM PDT
Nautical Twilight 5:41 AM PDT 8:39 PM PDT
Astronomical Twilight 5:06 AM PDT 9:13 PM PDT
Moon 9:32 PM PDT (9/4) 10:56 AM PDT (9/4)
Length of Visible Light 13h 51m
Length of Day
12h 55m
Waning Gibbous, 83% of the Moon is Illuminated
Sep 4
Waning Gibbous
Sep 8
Last Quarter
Sep 15
New
Sep 22
First Quarter
Sep 29
Full

Hourly Weather History & Observations

Time (PDT) Temp. Dew Point Humidity Pressure Visibility Wind Dir Wind Speed Gust Speed Precip Events Conditions
12:15 AM 57.2 °F 39.2 °F 51% 30.05 in 10.0 mi Calm Calm - N/A   Unknown
12:35 AM 57.2 °F 41.0 °F 55% 30.05 in 10.0 mi Calm Calm - N/A   Unknown
12:55 AM 57.2 °F 39.2 °F 51% 30.06 in 10.0 mi Calm Calm - N/A   Unknown
1:15 AM 55.4 °F 39.2 °F 54% 30.06 in 10.0 mi Calm Calm - N/A   Unknown
1:35 AM 55.4 °F 39.2 °F 54% 30.06 in 10.0 mi Calm Calm - N/A   Unknown
1:55 AM 55.4 °F 39.2 °F 54% 30.07 in 10.0 mi Calm Calm - N/A   Unknown
2:15 AM 55.4 °F 39.2 °F 54% 30.07 in 10.0 mi NNE 3.5 mph - N/A   Unknown
2:55 AM 53.6 °F 39.2 °F 58% 30.07 in 10.0 mi Calm Calm - N/A   Unknown
3:15 AM 53.6 °F 39.2 °F 58% 30.08 in 10.0 mi Calm Calm - N/A   Unknown
3:35 AM 51.8 °F 39.2 °F 62% 30.08 in 10.0 mi Calm Calm - N/A   Unknown
3:55 AM 51.8 °F 39.2 °F 62% 30.08 in 10.0 mi Calm Calm - N/A   Unknown
4:15 AM 50.0 °F 39.2 °F 66% 30.08 in 10.0 mi Calm Calm - N/A   Unknown
4:35 AM 50.0 °F 39.2 °F 66% 30.08 in 10.0 mi Calm Calm - N/A   Unknown
4:55 AM 50.0 °F 39.2 °F 66% 30.08 in 10.0 mi Calm Calm - N/A   Unknown
5:15 AM 50.0 °F 39.2 °F 66% 30.09 in 10.0 mi Calm Calm - N/A   Unknown
5:35 AM 48.2 °F 39.2 °F 71% 30.09 in 10.0 mi Calm Calm - N/A   Unknown
5:55 AM 48.2 °F 39.2 °F 71% 30.09 in 10.0 mi Calm Calm - N/A   Unknown
6:15 AM 48.2 °F 39.2 °F 71% 30.10 in 10.0 mi Calm Calm - N/A   Unknown
6:35 AM 48.2 °F 39.2 °F 71% 30.10 in 10.0 mi Calm Calm - N/A   Unknown
6:55 AM 48.2 °F 39.2 °F 71% 30.11 in 10.0 mi NNE 3.5 mph - N/A   Unknown
7:15 AM 48.2 °F 39.2 °F 71% 30.12 in 10.0 mi Calm Calm - N/A   Unknown
7:35 AM 48.2 °F 39.2 °F 71% 30.12 in 10.0 mi Calm Calm - N/A   Unknown
7:55 AM 50.0 °F 41.0 °F 71% 30.12 in 10.0 mi Calm Calm - N/A   Unknown
8:15 AM 53.6 °F 41.0 °F 62% 30.12 in 10.0 mi Calm Calm - N/A   Unknown
8:35 AM 55.4 °F 41.0 °F 58% 30.12 in 10.0 mi Calm Calm - N/A   Unknown
8:55 AM 59.0 °F 41.0 °F 51% 30.12 in 10.0 mi Calm Calm - N/A   Unknown
9:15 AM 60.8 °F 41.0 °F 48% 30.11 in 10.0 mi Calm Calm - N/A   Unknown
9:35 AM 64.4 °F 41.0 °F 42% 30.11 in 10.0 mi Calm Calm - N/A   Unknown
9:55 AM 66.2 °F 41.0 °F 40% 30.11 in 10.0 mi SSW 3.5 mph - N/A   Unknown
10:15 AM 68.0 °F 41.0 °F 37% 30.11 in 10.0 mi Calm Calm - N/A   Unknown
10:35 AM 71.6 °F 42.8 °F 35% 30.11 in 10.0 mi Calm Calm - N/A   Unknown
10:55 AM 73.4 °F 42.8 °F 33% 30.11 in 10.0 mi WSW 3.5 mph - N/A   Unknown
11:15 AM 75.2 °F 42.8 °F 31% 30.10 in 10.0 mi South 3.5 mph - N/A   Unknown
11:35 AM 77.0 °F 44.6 °F 32% 30.09 in 10.0 mi Calm Calm - N/A   Unknown
11:55 AM 80.6 °F 44.6 °F 28% 30.08 in 10.0 mi SSW 3.5 mph - N/A   Unknown
12:15 PM 84.2 °F 41.0 °F 22% 30.08 in 10.0 mi SW 4.6 mph - N/A   Unknown
12:35 PM 84.2 °F 39.2 °F 20% 30.07 in 10.0 mi WSW 3.5 mph - N/A   Unknown
12:55 PM 86.0 °F 37.4 °F 18% 30.06 in 10.0 mi SW 4.6 mph - N/A   Unknown
1:15 PM 87.8 °F 32.0 °F 14% 30.06 in 10.0 mi Calm Calm - N/A   Unknown
1:35 PM 89.6 °F 28.4 °F 11% 30.05 in 10.0 mi South 6.9 mph - N/A   Unknown
1:55 PM 89.6 °F 28.4 °F 11% 30.05 in 10.0 mi SSE 3.5 mph - N/A   Clear
2:15 PM 89.6 °F 30.2 °F 12% 30.04 in 10.0 mi NNE 4.6 mph - N/A   Clear
2:35 PM 91.4 °F 26.6 °F 10% 30.03 in 10.0 mi NNE 5.8 mph - N/A   Clear
2:55 PM 91.4 °F 24.8 °F 9% 30.03 in 10.0 mi Calm Calm - N/A   Clear
3:15 PM 91.4 °F 23.0 °F 8% 30.02 in 10.0 mi SSW 3.5 mph - N/A   Clear
3:35 PM 93.2 °F 21.2 °F 7% 30.02 in 10.0 mi SE 4.6 mph - N/A   Clear
3:55 PM 91.4 °F 23.0 °F 8% 30.01 in 10.0 mi NE 5.8 mph - N/A   Clear
4:15 PM 91.4 °F 23.0 °F 8% 30.00 in 10.0 mi ESE 3.5 mph - N/A   Clear
4:35 PM 91.4 °F 23.0 °F 8% 30.00 in 10.0 mi South 5.8 mph - N/A   Clear
4:55 PM 93.2 °F 24.8 °F 9% 30.00 in 10.0 mi SSE 4.6 mph - N/A   Clear
5:15 PM 91.4 °F 23.0 °F 8% 30.00 in 10.0 mi Calm Calm - N/A   Clear
5:35 PM 91.4 °F 23.0 °F 8% 30.00 in 10.0 mi ESE 3.5 mph - N/A   Clear
5:55 PM 91.4 °F 19.4 °F 7% 29.99 in 10.0 mi Calm Calm - N/A   Clear
6:15 PM 89.6 °F 19.4 °F 8% 29.99 in 10.0 mi Calm Calm - N/A   Clear
6:35 PM 89.6 °F 17.6 °F 7% 29.99 in 10.0 mi Calm Calm - N/A   Clear
6:55 PM 86.0 °F 23.0 °F 10% 29.99 in 10.0 mi Calm Calm - N/A   Clear
7:15 PM 84.2 °F 23.0 °F 11% 29.99 in 10.0 mi Calm Calm - N/A   Clear
7:35 PM 78.8 °F 28.4 °F 16% 30.00 in 10.0 mi NE 4.6 mph - N/A   Clear
7:55 PM 73.4 °F 30.2 °F 20% 30.01 in 10.0 mi NE 5.8 mph - N/A   Clear
8:15 PM 71.6 °F 28.4 °F 20% 30.01 in 10.0 mi NNE 5.8 mph - N/A   Clear
8:35 PM 68.0 °F 30.2 °F 24% 30.02 in 10.0 mi NE 3.5 mph - N/A   Unknown
9:15 PM 64.4 °F 28.4 °F 26% 30.03 in 10.0 mi Calm Calm - N/A   Unknown
9:35 PM 64.4 °F 28.4 °F 26% 30.03 in 10.0 mi Calm Calm - N/A   Unknown
9:55 PM 60.8 °F 28.4 °F 29% 30.03 in 10.0 mi Calm Calm - N/A   Unknown
10:15 PM 60.8 °F 28.4 °F 29% 30.04 in 10.0 mi Calm Calm - N/A   Unknown
10:35 PM 59.0 °F 28.4 °F 31% 30.04 in 10.0 mi NNE 4.6 mph - N/A   Unknown
10:55 PM 57.2 °F 28.4 °F 33% 30.05 in 10.0 mi NNE 4.6 mph - N/A   Unknown
11:15 PM 57.2 °F 28.4 °F 33% 30.05 in 10.0 mi Calm Calm - N/A   Unknown
11:35 PM 57.2 °F 28.4 °F 33% 30.05 in 10.0 mi NE 3.5 mph - N/A   Unknown
11:55 PM 55.4 °F 28.4 °F 36% 30.05 in 10.0 mi Calm Calm - N/A   Unknown